Location: Newark
(41.9000°N, 12.4833°E)
Time: 17:48:38
(UTC+00:00)

EO-79 - Pass Details

Date: 28 May 2019
Orbit: 591 x 611 km, 97.9° (Epoch: 19 June)

Event Time Altitude Azimuth Distance (km) Brightness Sun altitude
Rises 00:21:03 0° 3° (N) 2,839 ? -24.5°
Reaches altitude 10° 00:23:23 10° 353° (N) 1,931 ? -24.3°
Enters shadow 00:27:01 33° 293° (WNW) 1,012 ? -24.1°
